Regional Weather Roundup
Issued by NWS Sterling, VA

Home | Current Version | Previous Version | Graphics & Text | Print | Product List | Glossary On
Versions: 1 2 3 4 5 6 7 8 9 10 11 12 13 14 15 16 17 18 19 20 21 22 23 24 25 26 27
000
ASUS41 KLWX 260411
RWRLWX

REGIONAL WEATHER ROUNDUP
NATIONAL WEATHER SERVICE BALTIMORE MD/WASHINGTON DC
1200 AM EDT WED APR 26 2017

Note: "FAIR" indicates few or no clouds below 12,000 feet
with no significant weather and/or obstructions to visibility.
 TC=TEMPERATURE CELSIUS

 * =Non NWS site. Station does not report precipitation (e.g. rain,
    snow, etc.), thunder, or fog.

DCZ001-MDZ009-015-VAZ040>042-051-053>054-260500-
WASHINGTON METRO

CITY           SKY/WX    TMP DP  RH WIND       PRES   REMARKS
WASHINGTON NAT DRIZZLE   59  58  96 N9        29.74F FOG
DULLES         DRIZZLE   57  55  93 N10       29.75F FOG
ANDREWS AFB    CLOUDY    57  55  94 N12       29.72S
FT BELVOIR     CLOUDY    57  55  94 N3        29.73F
QUANTICO       CLOUDY    59  58  96 N9        29.74F
COLLEGE PARK*  CLOUDY    57  56  95 CALM      29.73F
LEESBURG*      CLOUDY    57  57 100 N7        29.77F
MANASSAS*        N/A     58  57  97 N7        29.75F

$$

MDZ006>007-011-014-260500-
BALTIMORE METRO

CITY           SKY/WX    TMP DP  RH WIND       PRES   REMARKS
BWI AIRPORT    LGT RAIN  57  57 100 N7        29.73F FOG
MD SCIENCE CTR   N/A     59  55  87 MISG      29.75R
MARTIN STATE   RAIN      59  59 100 N7        29.74F
ANNAPOLIS      LGT RAIN  59  56  89 N9        29.71F
FORT MEADE*    CLOUDY    55  54  94 CALM      29.76S

$$

MDZ012-015-019>023-260500-
MARYLAND EASTERN SHORE

CITY           SKY/WX    TMP DP  RH WIND       PRES   REMARKS
OCEAN CITY     FOG       59  58  96 NE5       29.66S VSB 1/2
SALISBURY      CLOUDY    59  59 100 N12       29.65F FOG
BAY BRIDGE AP* LGT RAIN  57  55  94 N6        29.71F FOG
CAMBRIDGE*     CLOUDY    59  59 100 N12       29.67F
EASTON*        CLOUDY    58  56  94 NE10      29.73F FOG

$$

MDZ017>025-260500-
SOUTHERN MARYLAND

CITY           SKY/WX    TMP DP  RH WIND       PRES   REMARKS
PATUXENT RIVER CLOUDY    58  58 100 N12       29.68F
ST INIGOES     NOT AVBL
LEONARDTOWN*   CLOUDY    55  55 100 NW5       29.71S

$$

MDZ003>005-260500-
NORTH CENTRAL MARYLAND

CITY           SKY/WX    TMP DP  RH WIND       PRES   REMARKS
FREDERICK*     NOT AVBL
HAGERSTOWN APT CLOUDY    56  55  97 N10       29.77F
WESTMINSTER*   HVY RAIN  55  55 100 N6        29.76F

$$

MDZ501>502-260500-
WESTERN MARYLAND

CITY           SKY/WX    TMP DP  RH WIND       PRES   REMARKS
OAKLAND*       FOG       46  46 100 SE8       29.80F VSB 1/2
CUMBERLAND*    CLOUDY    55  55 100 CALM      29.84S

$$

VAZ025>031-260500-
SHENANDOAH VALLEY

CITY           SKY/WX    TMP DP  RH WIND       PRES   REMARKS
WINCHESTER*    CLOUDY    54  54 100 N3        29.78S FOG
FRONT ROYAL*   CLOUDY    54  54 100 CALM      29.77F
LURAY*         CLOUDY    54  54 100 CALM      29.78S FOG
NEW MARKET*    CLOUDY    55  53  95 CALM      29.79R
STAUNTON*      CLOUDY    54  53  97 NE5       29.81S
WAYNESBORO*    CLOUDY    53  53 100 N9        29.79S

$$

WVZ021-048>050-054>055-260500-
EASTERN WEST VIRGINIA PANHANDLE

CITY           SKY/WX    TMP DP  RH WIND       PRES   REMARKS
MARTINSBURG    CLOUDY    56  54  93 N7        29.77F FOG
PETERSBURG*    CLOUDY    56  55  98 CALM      29.81S

$$

VAZ036>039-050-260500-
CENTRAL FOOTHILLS

CITY           SKY/WX    TMP DP  RH WIND       PRES   REMARKS
CHARLOTTESVILL CLOUDY    57  54  89 CALM      29.75F
CULPEPER*      CLOUDY    58  58  98 N7        29.76S
ORANGE*        CLOUDY    55  54  94 CALM      29.75F
GORDONSVILLE*  CLOUDY    58  56  94 N3        29.75S
WARRENTON*     CLOUDY    59  55  89 N5        29.74F

$$

VAZ055>057-260500-
NORTH AND CENTRAL PIEDMONT

CITY           SKY/WX    TMP DP  RH WIND       PRES   REMARKS
FREDERICKSBRG* CLOUDY    58  58 100 N7        29.73S
STAFFORD*      CLOUDY    57  57 100 N10       29.77F

$$

NCZ024-NYZ072-PAZ021-071-VAZ022-071-260500-
OTHER REGIONAL OBSERVATIONS

CITY           SKY/WX    TMP DP  RH WIND       PRES   REMARKS
NEW YORK CITY  LGT RAIN  52  51  97 NE10      29.88F
PHILADELPHIA   LGT RAIN  56  54  93 NE17G26   29.74F FOG
PITTSBURGH     CLOUDY    54  54 100 CALM      29.78F
ROANOKE        CLOUDY    55  52  89 N6        29.80S
RICHMOND       CLOUDY    60  59  96 N10       29.70F
RALEIGH        MOCLDY    61  58  90 VRB3      29.75S

$$

ANZ530>537-260500-
MARINE OBSERVATIONS

STATION/POSITION TIME  TEMP    WIND        PRES
                       AIR SEA DIR/SP/G
                 (UTC) (F)     (DEG/KT/KT) (MB)
THOMAS PT LIGHT  0400   57 56   10/ 15/ 16   N/A
BALT KEY BRIDGE  0342   58      40/ 11/ 14 1006.7F
COVE POINT       0342   57     360/ 14/ 18 1006.0F
LEWISETTA        0342   60 61   10/  9/ 14 1004.5F
SOLOMONS ISLAND  0342   58 60  350/ 10/ 14   N/A
PINEY POINT      0348          360/ 10/ 12   N/A

$$





USA.gov is the U.S. government's official web portal to all federal, state and local government web resources and services.